Temperature
20 20 19 18 17 16 14 13 13 12 12 11 11 12 12 12 11 11 11 11 11 10 10 9 8 8 8 8 7 6 6 5 5 4 3 3 3 3 3 3 3 3 2
19 19 19 18 17 16 15 13 13 12 12 13 13 13 13 13 12 11 11 10 10 10 10 9 9 8 8 7 7 6 6 5 5 4 3 2 2 3 3 3 2 2 2
18 18 18 17 16 15 15 14 13 12 12 12 11 11 10 10 10 11 11 10 10 10 10 10 9 9 8 8 7 7 6 5 5 4 3 2 2 1 1 1 1 1 1
17 17 17 16 16 15 14 13 12 12 11 10 10 10 10 11 12 12 11 10 9 9 9 9 9 8 8 8 7 6 6 5 4 3 3 3 2 1 0 -1 -1 -0 -0
17 16 16 15 15 14 14 13 12 11 10 9 9 9 9 10 10 9 9 8 8 8 8 8 8 7 7 7 6 5 5 4 4 4 3 2 1 0 -0 -1 -1 -1 -1
16 15 15 15 14 14 14 13 12 11 10 9 9 8 8 8 8 7 7 7 7 7 7 7 6 6 6 5 5 4 3 3 3 3 2 2 1 1 0 -0 -0 -1 -1
15 14 14 14 14 14 13 13 13 12 11 10 9 8 8 7 7 7 6 6 6 6 6 5 5 5 5 4 3 2 2 2 2 2 2 1 2 2 1 0 -1 -2 -2
15 14 14 13 13 13 13 13 13 13 12 11 10 9 8 8 7 7 6 6 6 5 5 5 5 4 4 3 2 1 1 1 0 0 0 0 0 0 0 -0 -1 -3 -4
14 14 13 13 13 13 13 13 13 13 12 12 11 11 10 9 8 8 7 7 6 6 5 5 4 4 4 3 2 1 1 -0 -1 -1 -1 -1 -1 -1 -1 -1 -1 -3 -5
14 13 13 13 13 12 12 12 12 12 12 12 11 11 10 10 9 9 8 8 7 6 5 5 4 4 3 3 1 1 0 -1 -1 -2 -2 -2 -2 -2 -2 -2 -2 -3 -4
13 13 13 12 12 12 12 12 11 11 11 11 11 11 10 10 9 9 9 8 8 7 6 5 5 4 3 2 1 0 -1 -1 -2 -3 -3 -3 -3 -3 -3 -3 -3 -3 -4
13 13 12 12 12 11 11 11 11 10 10 10 10 10 9 9 9 9 8 8 7 7 6 5 4 4 3 2 1 0 -1 -2 -2 -3 -3 -4 -4 -4 -4 -4 -4 -4 -4
13 12 12 11 11 11 11 10 10 10 9 9 9 9 9 8 8 8 8 7 7 6 6 5 4 4 3 2 1 0 -1 -2 -2 -3 -4 -4 -4 -4 -5 -5 -4 -4 -4
13 12 12 11 11 10 10 10 9 9 9 8 8 8 8 8 7 7 7 6 6 6 5 5 4 3 2 1 1 -0 -1 -2 -3 -4 -4 -5 -5 -5 -5 -5 -5 -4 -5
12 12 11 10 10 10 9 9 9 8 8 8 8 7 7 7 6 6 6 6 5 5 5 4 4 3 2 1 0 -1 -2 -2 -3 -4 -5 -5 -6 -6 -6 -6 -5 -5 -5
11 11 10 10 9 9 8 8 8 7 7 7 7 7 6 6 6 5 5 5 5 4 4 3 3 2 2 1 -1 -2 -3 -3 -4 -4 -5 -6 -6 -7 -6 -6 -6 -6 -6
10 10 9 9 8 8 8 7 7 7 7 6 6 6 5 5 5 4 4 4 3 3 3 2 2 1 1 -0 -2 -3 -4 -5 -5 -5 -6 -7 -7 -7 -7 -6 -6 -6 -6
9 9 8 8 7 7 7 6 6 6 6 6 5 5 4 4 4 3 3 2 2 1 1 1 1 0 0 -1 -2 -4 -5 -5 -5 -6 -6 -7 -7 -7 -7 -6 -6 -6 -6
8 8 7 7 6 6 6 5 5 5 5 5 4 4 3 3 2 2 2 1 1 0 0 -0 -0 -1 -1 -2 -3 -4 -5 -5 -6 -6 -6 -7 -7 -7 -7 -7 -6 -6 -5
7 7 6 6 6 5 5 5 4 4 4 4 3 3 3 2 1 1 0 0 -0 -0 -0 -1 -1 -1 -2 -2 -4 -5 -5 -6 -6 -6 -7 -7 -7 -7 -7 -7 -7 -6 -5
6 6 5 5 5 5 4 4 4 3 3 3 2 2 1 1 0 0 -0 -1 -1 -1 -1 -1 -1 -2 -2 -3 -4 -5 -6 -6 -6 -6 -7 -7 -7 -7 -6 -6 -6 -6 -6
5 5 4 4 4 4 4 3 3 3 2 2 1 1 0 -0 -0 -1 -1 -1 -1 -2 -2 -2 -2 -2 -3 -4 -5 -5 -6 -6 -6 -6 -6 -6 -6 -6 -6 -6 -6 -6 -6
4 4 4 4 4 3 3 2 2 2 1 0 0 -0 -1 -1 -1 -1 -2 -2 -2 -2 -2 -3 -3 -3 -3 -4 -5 -6 -6 -6 -6 -6 -6 -6 -6 -6 -6 -6 -6 -6 -6
4 3 3 3 3 2 2 1 1 0 -0 -1 -1 -1 -1 -1 -2 -2 -2 -2 -2 -2 -3 -3 -3 -4 -4 -5 -5 -6 -6 -6 -6 -6 -6 -6 -6 -6 -6 -6 -6 -7 -7
3 3 2 2 1 1 1 0 -0 -1 -1 -1 -1 -2 -2 -2 -2 -2 -2 -3 -3 -3 -3 -3 -4 -4 -4 -5 -6 -7 -7 -7 -7 -7 -6 -6 -6 -6 -6 -6 -6 -6 -7
2 2 1 1 1 0 -0 -1 -1 -1 -2 -2 -2 -2 -3 -3 -3 -3 -3 -3 -3 -3 -3 -3 -4 -4 -4 -5 -6 -6 -7 -7 -7 -7 -6 -6 -6 -6 -6 -6 -6 -7 -7
Wind_Speed
7 2 7 12 12 13 12 14 15 15 13 12 13 13 14 11 9 13 20 23 24 25 22 14 14 14 10 11 10 8 8 7 5 3 4 6 9 9 8 11 11 12 15
10 8 4 6 9 12 12 13 14 16 15 14 12 10 9 9 9 8 15 22 23 24 24 17 10 11 10 12 13 10 8 7 8 5 3 4 5 9 11 8 7 8 13
9 8 5 3 6 9 11 11 13 14 15 13 7 7 7 7 9 11 12 14 22 24 23 21 15 12 12 14 15 13 14 11 10 8 6 5 8 3 4 8 8 8 6
7 6 6 3 3 7 8 10 10 11 12 12 11 12 12 15 14 10 9 10 18 20 24 22 20 13 12 14 15 15 12 10 9 8 8 5 5 5 3 4 7 9 9
8 8 6 5 2 3 6 7 8 9 10 12 13 13 14 12 8 8 10 12 12 16 20 21 18 14 13 14 14 14 14 13 12 8 6 7 6 5 5 5 5 5 7
10 10 9 7 5 2 2 4 6 8 9 11 12 14 15 13 11 11 11 11 10 12 15 17 15 13 13 14 14 13 15 15 14 11 9 7 6 8 8 10 8 6 6
9 9 9 9 8 5 0 4 6 7 8 10 12 13 14 14 14 13 11 11 10 11 14 16 16 15 14 12 11 14 15 15 14 15 12 11 10 5 8 9 7 7 6
7 8 8 7 7 6 3 1 5 7 8 9 10 11 12 11 11 13 12 12 11 11 12 16 17 17 15 15 14 14 15 13 16 18 15 11 11 9 9 8 7 5 6
7 7 7 6 5 5 4 2 2 5 7 8 9 10 11 11 12 12 12 11 11 10 12 14 16 17 17 17 16 16 17 15 15 16 16 13 10 10 9 8 8 8 6
6 6 6 6 5 4 3 1 1 3 4 6 7 7 9 11 11 11 13 13 13 11 11 12 15 16 17 17 17 15 15 16 15 13 14 15 11 9 9 9 8 9 9
5 4 5 6 6 6 5 3 3 3 4 5 6 7 8 9 10 10 12 12 12 12 13 13 14 15 17 17 17 18 16 18 16 14 16 16 13 11 10 9 9 10 10
3 4 5 7 7 7 7 6 5 4 4 5 6 7 8 8 9 11 11 11 12 12 13 13 14 15 16 16 18 19 19 18 19 18 16 17 14 14 12 11 12 12 12
3 4 5 6 7 8 8 7 7 6 5 5 6 7 8 8 10 10 11 11 12 12 12 13 14 14 14 15 17 18 18 18 18 17 18 17 16 17 14 13 13 12 12
6 5 5 6 8 8 8 8 8 7 7 7 7 8 9 9 9 9 9 10 10 11 12 12 13 13 12 13 14 15 15 15 16 16 17 17 18 17 16 15 15 13 12
8 6 7 7 8 8 8 8 8 9 8 8 9 9 9 9 9 9 9 10 11 12 11 11 12 11 11 12 13 13 14 15 15 16 16 18 22 25 20 16 13 13 12
8 9 10 10 9 9 9 9 9 9 9 10 10 10 10 9 9 10 10 11 11 11 11 12 12 13 12 21 26 19 14 14 15 15 14 16 23 27 32 31 27 22 15
11 11 11 10 9 9 9 9 9 9 10 11 12 11 10 9 10 10 11 11 12 11 12 12 12 13 16 25 27 28 16 15 15 14 13 15 18 24 16 23 30 27 29
12 11 10 9 8 8 9 9 9 10 11 12 12 11 10 10 10 11 11 12 11 11 11 11 12 12 15 24 26 27 18 14 16 16 16 16 15 17 17 16 16 15 16
11 9 8 8 9 10 10 10 10 11 12 12 12 10 10 10 11 11 12 11 11 10 10 9 11 12 14 21 24 24 11 12 15 16 16 17 16 24 28 19 17 16 16
9 9 8 8 10 10 11 11 12 12 12 12 11 10 10 11 12 12 12 10 10 10 10 10 9 11 11 18 22 23 9 11 11 12 15 24 23 25 28 19 16 16 14
9 9 9 9 10 11 11 13 13 13 12 11 11 11 11 11 12 12 10 11 10 10 10 10 9 9 11 15 20 22 11 10 11 11 12 14 27 28 28 24 15 18 14
9 9 9 10 11 11 12 14 14 13 12 12 12 12 11 11 11 11 11 10 10 10 10 10 9 7 8 13 15 21 21 18 12 11 9 13 24 26 25 20 18 22 19
9 9 10 12 12 12 12 15 14 13 13 13 12 12 11 10 10 11 12 10 9 9 9 8 9 7 6 8 17 19 21 22 14 11 16 18 21 21 17 20 20 16 8
10 10 11 13 14 13 12 13 14 14 14 13 13 11 11 11 11 9 8 9 9 9 9 9 9 8 6 5 6 7 9 14 14 11 16 22 21 16 14 13 10 7 5
9 10 11 14 16 14 13 13 14 14 14 13 12 11 10 12 11 10 9 10 9 11 12 9 8 9 8 9 13 8 7 6 9 8 7 9 8 9 7 6 6 5 5
11 12 13 14 15 15 15 14 13 12 13 12 11 10 10 10 11 12 12 15 16 21 22 20 17 12 16 19 18 17 16 17 16 11 7 8 8 9 8 7 7 7 7
Wind_Direction
346 357 178 179 175 178 181 179 183 186 187 193 199 203 210 211 209 207 204 200 199 201 202 205 201 199 198 199 196 190 197 203 184 194 262 257 236 232 229 227 227 229 233
13 15 69 147 170 178 183 182 185 188 193 201 203 206 206 211 214 210 210 204 201 200 205 205 203 202 201 200 199 193 191 196 185 174 189 262 267 234 227 214 216 221 226
28 18 29 144 174 186 190 195 192 193 196 196 195 202 207 212 216 215 215 209 205 204 205 208 207 206 204 208 204 197 194 200 196 185 172 192 226 250 229 217 218 217 216
40 33 23 12 208 205 194 196 197 197 194 192 201 205 212 221 222 218 216 212 211 210 209 209 210 210 210 212 209 205 202 193 198 202 208 199 170 182 247 261 229 221 223
37 32 33 13 343 202 193 195 199 203 197 198 204 213 224 231 232 221 219 217 216 216 215 212 212 214 214 214 211 209 206 206 203 195 186 211 217 194 194 239 242 234 228
33 26 21 17 19 48 162 189 207 218 209 206 209 214 225 229 231 229 227 223 221 219 218 216 215 216 217 216 214 212 211 211 211 208 196 182 185 202 203 219 224 230 234
37 26 21 16 15 16 167 196 214 233 227 219 219 222 225 227 233 234 232 229 228 224 219 217 219 220 219 216 212 215 217 214 212 214 214 208 207 181 187 203 216 225 232
43 33 24 19 15 15 11 236 222 230 230 228 228 228 228 229 235 235 235 236 235 229 215 214 218 219 217 219 216 219 220 217 218 219 216 216 213 205 198 197 197 223 236
47 34 20 16 16 15 5 351 282 246 235 231 232 231 229 230 234 234 235 240 241 234 218 211 213 216 217 218 217 222 222 219 219 220 217 218 215 210 207 202 197 203 227
48 32 10 1 1 0 340 347 312 277 255 243 239 238 234 234 235 234 237 239 241 238 228 218 215 215 217 217 219 223 221 219 220 217 217 218 215 211 209 208 207 210 221
44 22 359 349 352 353 343 333 310 287 270 257 253 253 249 243 240 241 242 241 241 237 234 228 222 220 219 218 220 223 218 220 221 218 217 218 211 211 212 211 212 217 221
33 3 353 345 345 342 334 332 322 309 290 273 265 262 260 255 250 248 248 244 243 240 238 233 229 226 222 218 219 223 220 219 220 218 216 217 212 211 212 214 217 221 223
356 341 343 336 334 331 327 327 326 324 312 298 285 278 273 266 260 258 255 249 246 244 240 236 235 231 225 220 221 221 221 220 220 216 216 215 211 214 215 215 220 224 229
324 320 329 328 326 320 321 324 325 321 312 303 294 288 282 276 272 272 270 265 257 252 247 242 239 235 228 223 222 220 220 220 219 216 216 214 214 215 214 218 221 223 228
312 327 330 322 316 316 319 322 318 312 309 304 298 289 285 284 284 283 280 276 269 262 254 249 245 238 230 226 222 220 220 219 218 217 216 216 217 218 218 221 220 220 225
335 337 327 318 316 318 319 318 312 309 310 305 295 289 287 285 283 281 280 277 272 267 260 253 249 244 241 244 242 233 224 222 221 220 217 218 226 228 228 229 227 221 222
337 324 316 316 319 319 318 313 306 309 309 301 296 293 289 286 283 282 282 277 273 267 261 256 250 248 247 251 251 246 231 222 224 222 219 222 224 228 230 238 239 237 234
325 319 319 321 319 317 313 306 307 308 303 298 295 293 291 288 287 284 281 279 274 267 263 259 252 249 250 254 254 251 242 222 220 220 219 221 221 223 223 227 234 241 246
321 319 323 323 321 314 309 309 306 300 297 295 294 295 296 293 291 288 284 281 278 273 267 262 255 251 252 255 255 252 239 229 222 218 216 219 221 226 227 224 226 234 240
323 326 327 323 315 309 311 309 301 298 296 295 296 300 300 297 294 290 288 287 284 280 275 268 257 253 249 254 256 253 237 232 227 219 217 222 222 226 230 225 221 229 234
325 325 321 314 305 306 307 302 299 298 298 302 303 302 298 295 294 294 292 292 289 287 282 276 267 256 253 259 258 254 236 229 228 225 219 217 226 228 229 227 222 231 234
322 318 313 305 302 303 304 301 300 301 304 304 301 298 296 297 297 294 294 290 290 291 288 284 280 265 259 262 259 257 251 241 228 227 219 215 221 228 231 233 233 238 245
308 307 305 303 301 301 301 302 304 308 308 305 301 299 298 296 293 293 296 296 292 290 289 284 283 278 257 256 264 262 258 253 239 222 222 219 220 223 230 235 237 241 238
302 304 304 303 303 303 302 303 308 309 306 304 302 299 299 298 295 291 290 291 289 287 286 284 283 281 269 251 245 247 260 261 256 240 225 222 220 218 217 227 239 231 221
299 300 300 301 303 309 309 306 304 305 302 299 298 298 297 296 297 292 289 287 277 278 284 280 272 277 276 264 264 253 235 232 243 234 212 209 206 204 198 201 210 214 228
302 304 303 303 305 306 303 302 301 301 303 304 303 300 298 297 295 296 295 287 285 291 288 284 280 274 273 277 274 271 263 253 244 236 217 205 199 198 199 204 210 214 221
Height
1486 1485 1485 1487 1490 1492 1495 1496 1497 1498 1500 1501 1501 1502 1503 1505 1507 1508 1509 1510 1511 1513 1515 1516 1517 1518 1518 1518 1520 1521 1521 1521 1522 1521 1519 1518 1518 1517 1517 1517 1516 1515 1515
1486 1485 1485 1486 1487 1488 1490 1491 1491 1492 1492 1494 1495 1496 1498 1499 1500 1501 1502 1502 1503 1504 1506 1507 1508 1510 1510 1511 1511 1512 1512 1513 1514 1514 1513 1511 1509 1507 1508 1509 1509 1509 1508
1488 1487 1486 1486 1486 1486 1486 1487 1487 1487 1487 1489 1491 1492 1492 1492 1492 1491 1492 1494 1495 1495 1496 1498 1499 1500 1501 1501 1501 1502 1503 1503 1504 1504 1506 1504 1500 1500 1499 1499 1500 1501 1501
1489 1488 1487 1486 1485 1484 1484 1484 1484 1484 1484 1485 1486 1485 1484 1482 1482 1485 1486 1487 1488 1488 1488 1488 1489 1490 1491 1491 1492 1493 1493 1494 1493 1493 1493 1495 1495 1495 1492 1491 1491 1492 1492
1490 1489 1487 1485 1483 1482 1481 1481 1481 1481 1482 1481 1481 1481 1479 1478 1480 1481 1480 1480 1479 1479 1479 1479 1480 1480 1480 1480 1482 1482 1483 1483 1483 1483 1482 1484 1485 1484 1484 1482 1482 1483 1483
1491 1489 1487 1485 1482 1480 1479 1478 1477 1477 1477 1477 1476 1475 1474 1474 1474 1474 1473 1473 1472 1471 1470 1471 1470 1470 1470 1470 1471 1472 1472 1472 1472 1473 1472 1471 1472 1471 1472 1472 1472 1473 1474
1491 1489 1487 1485 1482 1480 1478 1476 1475 1474 1473 1473 1472 1471 1470 1469 1468 1467 1467 1466 1465 1463 1461 1462 1461 1460 1460 1461 1461 1462 1461 1461 1461 1461 1461 1461 1461 1462 1463 1464 1463 1463 1464
1490 1489 1488 1486 1483 1481 1478 1476 1474 1472 1470 1469 1467 1466 1465 1463 1461 1460 1460 1459 1457 1456 1455 1454 1452 1451 1451 1451 1451 1451 1450 1450 1450 1450 1451 1451 1451 1453 1454 1455 1457 1455 1455
1490 1489 1488 1486 1483 1481 1478 1476 1473 1471 1469 1466 1464 1462 1460 1457 1455 1453 1452 1450 1449 1448 1447 1445 1443 1441 1441 1440 1440 1439 1438 1439 1439 1439 1440 1441 1442 1443 1445 1446 1448 1449 1445
1489 1488 1487 1486 1483 1481 1478 1475 1472 1470 1467 1464 1461 1458 1455 1452 1449 1447 1444 1442 1440 1439 1438 1436 1434 1432 1431 1430 1429 1428 1427 1428 1427 1428 1430 1430 1432 1434 1436 1437 1438 1438 1437
1488 1487 1486 1485 1482 1480 1477 1474 1470 1467 1464 1460 1457 1454 1450 1447 1444 1440 1437 1434 1432 1430 1428 1426 1424 1422 1420 1419 1418 1417 1417 1417 1417 1418 1419 1420 1423 1424 1426 1428 1429 1429 1429
1487 1486 1484 1482 1480 1477 1474 1471 1468 1464 1460 1456 1453 1449 1445 1441 1437 1434 1430 1427 1424 1421 1419 1416 1414 1411 1409 1408 1407 1405 1405 1405 1405 1406 1408 1409 1412 1414 1416 1418 1419 1420 1420
1485 1484 1482 1480 1477 1474 1471 1468 1464 1460 1456 1452 1448 1444 1440 1435 1431 1427 1423 1419 1415 1412 1409 1406 1403 1401 1399 1398 1396 1395 1394 1394 1394 1395 1397 1399 1402 1403 1406 1408 1410 1411 1412
1483 1481 1478 1476 1474 1471 1467 1464 1460 1456 1451 1447 1442 1438 1434 1429 1425 1420 1416 1411 1407 1403 1399 1396 1393 1391 1389 1388 1386 1385 1384 1384 1384 1385 1387 1389 1391 1393 1397 1399 1401 1402 1403
1479 1477 1475 1472 1470 1466 1462 1458 1454 1450 1446 1441 1437 1432 1427 1422 1417 1412 1407 1403 1398 1394 1390 1386 1383 1380 1378 1376 1376 1375 1374 1374 1374 1375 1376 1378 1381 1384 1387 1390 1391 1393 1394
1476 1474 1471 1469 1465 1461 1457 1453 1449 1445 1441 1436 1430 1425 1420 1415 1409 1404 1399 1393 1388 1384 1380 1376 1373 1370 1367 1366 1365 1364 1362 1362 1363 1364 1365 1368 1372 1375 1378 1381 1382 1384 1384
1473 1471 1468 1464 1460 1456 1452 1448 1443 1439 1435 1430 1424 1419 1413 1407 1401 1396 1390 1384 1379 1374 1370 1366 1362 1359 1357 1357 1355 1355 1353 1351 1352 1353 1356 1359 1361 1366 1368 1372 1375 1376 1376
1470 1467 1463 1459 1455 1451 1447 1443 1438 1434 1428 1423 1417 1412 1406 1399 1393 1387 1381 1376 1371 1365 1361 1356 1353 1349 1347 1346 1345 1345 1345 1342 1341 1343 1345 1348 1351 1355 1359 1362 1364 1365 1367
1466 1462 1458 1454 1450 1446 1442 1437 1432 1427 1421 1416 1410 1405 1399 1392 1386 1379 1373 1368 1363 1357 1353 1348 1344 1341 1338 1337 1336 1336 1334 1334 1332 1333 1336 1339 1341 1345 1350 1353 1354 1355 1357
1462 1458 1453 1449 1446 1441 1437 1432 1426 1420 1415 1409 1403 1398 1392 1385 1378 1372 1366 1361 1356 1350 1345 1340 1337 1333 1330 1329 1327 1327 1326 1325 1326 1326 1327 1330 1333 1337 1341 1344 1345 1346 1347
1457 1453 1449 1445 1441 1437 1432 1426 1420 1414 1409 1403 1396 1390 1384 1378 1371 1365 1360 1354 1349 1343 1338 1333 1329 1326 1323 1321 1320 1319 1319 1318 1318 1319 1320 1322 1326 1330 1333 1336 1338 1339 1341
1452 1449 1445 1440 1436 1432 1426 1419 1413 1408 1401 1395 1388 1382 1376 1370 1364 1358 1353 1348 1342 1336 1331 1326 1322 1319 1316 1314 1312 1311 1312 1311 1311 1312 1314 1316 1319 1323 1326 1329 1331 1333 1335
1449 1445 1440 1435 1430 1425 1420 1413 1406 1400 1393 1386 1380 1374 1368 1363 1357 1352 1346 1341 1336 1330 1325 1320 1315 1311 1309 1307 1306 1305 1305 1305 1305 1305 1308 1311 1314 1317 1320 1323 1325 1327 1328
1444 1440 1435 1429 1422 1418 1413 1407 1399 1392 1385 1378 1372 1366 1361 1355 1350 1345 1340 1335 1330 1324 1319 1314 1310 1306 1303 1301 1299 1298 1297 1297 1298 1300 1302 1305 1308 1311 1313 1316 1318 1320 1321
1440 1435 1429 1422 1416 1410 1404 1398 1392 1385 1378 1371 1365 1359 1354 1348 1342 1338 1334 1329 1324 1320 1315 1309 1305 1301 1296 1295 1294 1292 1290 1290 1291 1293 1295 1299 1302 1304 1307 1309 1311 1313 1314
1434 1428 1422 1416 1409 1402 1395 1390 1385 1379 1372 1364 1358 1352 1346 1341 1336 1330 1325 1322 1318 1313 1309 1305 1301 1295 1292 1289 1288 1287 1286 1286 1287 1289 1289 1292 1295 1298 1301 1303 1305 1307 1307